STARLINK-11590, 63112

Orbit data source: Space-Track

STARLINK-11590, 63112 is a payload satellite owned by SpaceX/Seattle (US) in LEO that was launched on Thu, 27 Feb 2025 UTC via an FALCON 9 launch vehicle from the Air Force Eastern Test Range (AFETR). Payload-class satellites include a variety of spacecraft equipped with specific instruments for various scientific and technological missions. These include communications satellites like Starlink; space stations such as the ISS; scientific satellites like the Hubble; Earth observation satellites from companies like Planet Labs, Umbra, and HawkEye 360; GPS; miniature CubeSats for education and research; and military/defense satellites.

Loading next visibility...
Identifier
63112, 2025-039J
Orbit
LEO
Last TLE update
23 hours ago
Origin
Manufacturer
SpaceX/Seattle
Mission
Operational Commercial Communications
Bus & Motor
STARLINK V2M, Unknown motor
Mass
730 kg wet, ~700 kg dry
Launch date (UTC)
2025-02-27 (4 months ago)
Launch vehicle
FALCON 9
Launch site
Air Force Eastern Test Range (AFETR)
Object type
Payload
Rocket body
Debris
Shape & HBR
Box + 2 Pan, 29 m
Radar Cross Section
36.964 m², Large (>1 m²)

Expand to show TLE details & history

TLE from 23 hours ago
0 STARLINK-11590
1 63112U 25039J   25186.00002315 -.00079727  00000-0 -62365-3 0  9994
2 63112  43.0003 290.2820 0001618 272.0427 148.5304 15.70845131  5856
Epoch: 2025-07-05T00:00Z
TLE epoch observation values (Epoch: 2025-07-05T00:00:02Z)
Latitude
36.5874°
Longitude
59.36159°
Altitude
359.15 km
Speed
7.699 km/s
True Right ascension
22h 50m 27s
True Declination
36° 24' 48"
Sunlit
Object was in daylight at epoch
Visualization orbit readout
Latitude
1.90265°
Longitude
3.3695°
Altitude
356.35 km
Speed
7.697 km/s
Apparent Right ascension
20h 33m 07s
Apparent Declination
-20° 10' 10"
Sunlit
Object is in full shadow
Visualization observer readout
Local Sidereal Time
10:35:01
Azimuth
61.855° ENE
Elevation
-57.325°
Doppler factor
1
Orbital elements
Apogee altitude
359.552 km
Perigee altitude
357.372 km
Semi-major axis
6,736.599 km
Eccentricity
0.00016
Inclination
43.0003°
RAAN
290.282°
Arg. of periapsis
272.0427°
True anomaly
Unknown
Mean anomaly
148.5304°
Eccentric anomaly
Unknown
Mean motion
3.92538 °/min
Orbital period
91.71 mins
BSTAR
-0.00062365
Loading maneuver chart data...
Loading SW <> Apogee altitude chart data...
Loading historical data...
Loading historical data...
Loading historical data...
Loading historical data...
Loading historical data...
Loading historical data...
Loading historical data...

STARLINK-11590 Visibility forecast

Observer location: undefined°, undefined°

Span
Click to sort rows by Start time (UTC) header in descending order
Start Az.
Max El. time (UTC)
Max El. Az.
Max El.
End time (UTC)
End Az.
4 mins2025-07-06 09:30:47.815Z194.682° SSW2025-07-06 09:32:47.815Z150.173° SSE18.527°2025-07-06 09:34:47.815Z102.524° ESE
4 mins2025-07-06 12:43:47.815Z303.127° NW2025-07-06 12:44:47.815Z341.927° N33.573°2025-07-06 12:47:47.815Z73.374° E
4 mins2025-07-06 14:19:47.815Z291.491° WNW2025-07-06 14:21:47.815Z90.704° ESE41.222°2025-07-06 14:23:47.815Z104.642° ESE
|